sat.trackr.live / text

‹ back to catalog

GAOFEN-11 05

NORAD 60249 · 2024-130A

PAYLOAD ACTIVE UNKNOWN

§ Identity

Operator
Country
PRC
Launch date
2024-07-19
Launch site
TAISC
Launch vehicle
Mass (kg)
RCS (m²)

External: N2YO · Heavens-Above · Gunter

§ Orbital elements

Epoch: 2026-05-25T04:39:29.284416Z

Period
94.53 min
Inclination
97.3999°
Eccentricity
0.0004277
Mean motion
15.23373678 rev/d
Perigee alt
492.7 km
Apogee alt
498.6 km
Semi-major
6,873.8 km
B*
2.1851e-4
RAAN
223.8215°
Arg perigee
137.4120°
Mean anomaly
222.7449°
Rev number
8,196

§ Raw data

GAOFEN-11 051 60249U 24130A   26145.19408894  .00005126  00000+0  21851-3 0  99952 60249  97.3999 223.8215 0004277 137.4120 222.7449 15.23373678 81969

JSON: /api/v1/satellites/60249 · /tle

For live sub-satellite position, see the globe view (requires WebGL).

§ Visibility from observer

Set your observer location to see the next 7 days of passes ≥ 10°. The values pass through the URL so the page stays shareable.

No JS? Fill the form by hand. The geolocation button needs JavaScript.